#timestamp,LO_Frequency,Hit,StdDev 
1459400415.6,286047002.6,N
1459400435.4,286047000.3,N
1459400455.2,286046999.6,N
1459400475.1,286047000.8,N
1459400476.0,286047000.8,N
1459400495.8,286046999.1,N
1459400515.6,286046999.3,N
1459400535.5,286046997.0,N
1459400555.3,286046998.5,N
1459400575.1,286046998.3,N
1459400595.9,286046999.7,N
1459400615.7,286046999.7,N
1459400635.5,286046998.8,N
1459400655.4,286046998.8,N
1459400675.2,286046999.2,N
1459400695.0,286046996.5,N
1459400695.9,286046996.5,N
1459400715.8,286046998.7,N
1459400735.6,286046999.6,N
1459400755.4,286047001.2,N
1459400775.2,286046999.0,N
1459400795.1,286046996.9,N
1459400796.0,286046996.9,N
1459400815.8,286046997.5,N
1459400835.6,286046998.0,N
1459400855.5,286046996.1,N
1459400875.3,286046995.6,N
1459400895.1,286046997.6,N
1459400915.9,286046995.4,N
1459400935.7,286046992.0,Y
1459400955.5,286046993.1,P
1459400975.4,286046991.1,P
1459400995.2,286046988.1,P
1459401015.0,286046990.0,N
1459401015.9,286046990.0,N
1459401035.8,286046990.8,N
1459401055.6,286046988.8,Y
1459401075.4,286046996.4,P
1459401095.3,286046996.1,N
1459401115.1,286046994.2,N
1459401116.0,286046994.2,Y
1459401135.8,286046997.4,P
1459401155.7,286046997.2,N
1459401175.5,286046997.0,N
1459401195.3,286046998.7,N
1459401215.2,286046996.6,N
1459401235.9,286047001.1,N
1459401255.7,286046998.1,N
1459401275.6,286046998.7,N
1459401295.4,286047000.8,N
1459401315.2,286046999.0,N
1459401335.0,286046999.6,N
1459401336.0,286046999.6,N
1459401355.8,286046999.3,N
1459401375.6,286047000.2,N
1459401395.4,286047002.3,N
1459401415.3,286047004.8,N
1459401435.1,286047005.1,N
1459401455.8,286047006.0,N
1459401475.7,286047003.5,N
1459401495.5,286047002.5,N
1459401515.3,286047003.0,N
1459401535.2,286047002.6,N
1459401555.9,286046997.1,N
1459401575.7,286046996.6,N
1459401595.6,286046999.2,N
1459401615.4,286047001.2,N
1459401635.2,286046998.3,N
1459401655.0,286046998.1,N
1459401655.9,286046998.1,N
1459401675.8,286046999.2,N
1459401695.6,286046995.7,N
1459401715.4,286046993.3,N
1459401735.3,286046990.2,Y
1459401755.1,286046994.4,P
1459401775.8,286046993.2,N
1459401795.7,286046990.4,P
1459401815.5,286046992.7,N
1459401835.3,286046991.5,N
1459401855.2,286046990.3,Y
1459401875.0,286046996.5,P
1459401875.9,286046996.5,N
1459401895.7,286046996.7,N
1459401915.6,286046996.5,N
1459401935.4,286046995.5,Y
1459401955.2,286047000.8,P
1459401975.1,286046998.6,N
1459401976.0,286046998.6,N
1459401995.8,286047000.5,N
1459402015.6,286046999.0,N
1459402035.5,286046999.2,N
1459402055.3,286046998.2,N
1459402075.1,286047001.2,N
1459402095.9,286046998.1,N
1459402115.7,286047000.3,N
1459402135.5,286046997.2,N
1459402155.4,286046997.1,N
1459402175.2,286046996.7,N
1459402195.0,286046995.1,Y
1459402195.9,286046995.1,P
1459402215.8,286046997.9,N
1459402235.6,286046994.9,P
1459402255.4,286046997.3,N
1459402275.2,286046996.5,N
1459402295.1,286047000.3,N
1459402296.0,286047000.3,N
1459402315.8,286047001.3,N
1459402335.6,286047000.2,N
1459402355.5,286047001.5,N
1459402375.3,286047002.7,N
1459402395.1,286046999.4,N
1459402415.9,286047000.4,N
1459402435.7,286046998.7,N
1459402455.5,286047000.9,N
1459402475.4,286046999.1,N
1459402495.2,286046998.7,N
1459402515.0,286046996.8,N
1459402515.9,286046996.8,N
1459402535.8,286046996.9,N
1459402555.6,286046999.2,N
1459402575.4,286046999.0,N
1459402595.3,286047002.8,N
1459402615.1,286047004.1,N
1459402616.0,286047004.1,N
1459402635.8,286047007.2,N
1459402655.6,286047005.4,N
1459402675.5,286047005.9,N
1459402695.3,286047002.9,N
1459402715.1,286047006.0,N
1459402735.9,286047005.7,N
1459402755.7,286047001.7,N
1459402775.5,286047003.1,N
1459402795.4,286047003.8,N
1459402815.2,286046998.2,N
1459402835.0,286047001.7,N
1459402835.9,286047001.7,N
1459402855.8,286047001.6,N
1459402875.6,286047000.4,N
1459402895.4,286046998.2,N
1459402915.3,286046999.3,N
1459402935.1,286046997.4,N
1459402936.0,286046997.4,N
1459402955.8,286046997.0,N
1459402975.7,286046998.3,N
1459402995.5,286046996.5,N
1459403015.3,286046995.5,N
1459403035.1,286046993.3,N
1459403055.9,286046991.8,N
1459403075.7,286046993.8,N
1459403095.5,286046997.6,N
1459403115.4,286046997.5,N
1459403135.2,286046995.1,N
1459403155.0,286046996.8,N
1459403155.9,286046996.8,N
1459403175.8,286046998.1,N
1459403195.6,286046997.8,N
1459403215.4,286046996.8,N
1459403235.3,286047001.2,N
1459403255.1,286046995.4,N
1459403256.0,286046995.4,N
1459403275.8,286046996.1,N
1459403295.7,286046996.3,N
1459403315.5,286046993.7,N
1459403335.3,286046993.9,N
1459403355.2,286046996.1,N
1459403375.9,286046994.2,N
1459403395.7,286046993.5,N
1459403415.6,286046992.2,Y
1459403435.4,286047001.2,P
1459403455.2,286047000.3,N
1459403475.1,286047002.5,N
1459403476.0,286047002.5,N
1459403495.8,286047002.1,N
1459403515.6,286047002.6,N
1459403535.4,286047003.9,N
1459403555.3,286047002.3,N
1459403575.1,286046999.3,N
1459403595.8,286046998.0,N
1459403615.7,286047000.7,N
1459403635.5,286046998.1,N
1459403655.3,286046996.8,N
1459403675.2,286046998.7,N
1459403695.9,286046998.9,N
1459403715.7,286046996.9,N
1459403735.6,286046999.4,N
1459403755.4,286046999.2,N
1459403775.2,286046995.7,N
1459403795.1,286046995.7,N
1459403796.0,286046995.7,N
1459403815.8,286046994.9,N
1459403835.6,286046995.3,N
1459403855.4,286046996.6,N
1459403875.3,286046996.6,N
1459403895.1,286046996.7,N
1459403915.2,286046997.8,N
1459403935.1,286046997.4,N
1459403936.0,286046997.4,N
1459403955.8,286046998.4,N
1459403975.6,286046998.1,N
1459403995.5,286047002.4,N
